Theta_e
326 326 325 323 322 323 324 324 322 322 321 321 322 322 321 320 318 319 320 319 319 320 319 319 320 319 319 319 319 317 316 315 314 314 314 314 313 312 311 311 311 311 310 310 309 308 308 308 308 308 307 307 308 308 308 309 310 309 309 310 310 310 310 311 311 312 312 312 313 313 313 314 314 313 314 314 315 316 317 318 319 320 320 321 321
326 326 325 323 323 324 324 324 323 325 323 321 322 323 322 320 319 318 318 319 319 319 319 319 320 319 319 319 318 317 316 316 315 314 314 314 313 312 311 311 310 310 310 310 310 309 308 308 308 308 307 307 307 307 307 308 308 307 308 309 309 309 309 309 309 310 310 310 310 311 311 312 312 312 313 314 314 314 315 315 315 316 316 317 318
324 324 325 325 325 325 325 324 323 324 323 322 322 322 321 321 321 320 320 319 319 318 318 319 320 320 319 319 318 318 316 316 315 314 314 314 313 312 311 311 310 310 310 310 309 309 309 309 308 307 307 307 307 307 307 307 307 307 307 307 308 309 309 309 310 309 310 310 309 310 310 311 311 311 311 312 312 312 312 312 313 313 313 314 314
324 323 324 324 324 325 326 325 324 324 323 323 323 323 322 321 320 320 321 320 319 318 317 318 320 320 320 319 318 318 317 316 315 314 314 314 313 312 312 311 311 311 310 309 308 308 308 308 307 307 306 307 307 307 307 307 308 307 306 306 307 307 308 309 310 310 310 310 310 309 309 310 310 310 310 310 310 310 311 311 312 313 313 313 314
323 325 325 325 325 325 325 325 325 325 325 324 324 324 324 323 321 321 322 321 320 319 319 319 319 319 320 320 319 318 318 317 315 315 314 314 313 313 312 311 311 311 310 309 308 307 307 307 307 307 306 306 307 307 307 307 307 306 306 306 305 305 306 307 308 308 308 309 309 309 309 309 309 310 310 309 310 309 310 310 311 311 312 313 314
319 322 324 325 325 325 325 325 324 324 324 324 324 324 324 324 323 322 322 322 320 320 320 319 319 319 320 320 320 319 318 317 316 315 314 314 314 313 312 312 311 311 310 309 307 307 307 306 306 305 305 305 306 306 306 306 306 306 306 306 305 306 306 306 306 306 306 307 307 307 308 308 308 309 309 309 310 310 310 310 310 310 311 311 313
315 317 319 321 321 321 322 322 322 323 324 324 325 325 325 325 324 323 323 322 322 321 320 318 319 320 319 320 320 319 318 317 316 315 315 314 314 313 312 312 311 310 309 308 306 306 305 305 305 304 304 304 304 305 305 305 305 305 304 305 305 305 305 306 306 306 306 306 306 307 307 307 307 308 308 308 309 309 310 310 311 311 312 314 315
312 314 315 315 315 316 317 316 317 321 322 322 323 324 324 324 324 323 323 322 322 322 321 319 319 320 319 320 320 320 319 317 316 315 315 314 314 313 312 312 311 309 308 306 305 304 303 303 303 303 303 303 303 302 302 301 301 301 301 302 302 303 303 304 305 305 306 306 306 307 306 307 307 307 308 307 308 309 310 311 312 312 313 313 313
311 312 312 313 312 313 314 313 314 318 320 320 321 321 322 323 324 323 322 322 322 322 322 321 320 320 320 320 320 320 319 317 316 315 315 314 313 313 312 311 310 308 306 304 303 303 302 302 302 301 302 301 298 296 295 294 295 296 297 299 300 301 302 302 303 304 305 305 305 306 306 306 307 307 307 308 308 309 309 310 311 311 311 312 311
310 310 310 310 311 311 312 312 313 316 318 318 319 319 320 322 323 323 323 323 323 322 323 323 321 320 321 320 320 319 318 317 316 315 314 314 313 312 311 309 308 306 305 304 303 302 302 302 301 301 300 298 296 294 293 293 293 294 295 296 297 298 299 300 301 302 302 303 303 304 304 305 306 306 306 307 307 307 308 308 309 309 310 311 311
310 310 309 309 309 309 310 311 311 312 314 316 318 318 319 320 321 322 322 323 323 322 322 323 322 321 321 320 319 319 318 317 315 314 313 312 312 311 309 307 306 305 304 303 303 302 302 302 301 301 300 299 298 298 297 296 296 295 296 296 296 296 296 297 298 299 300 301 302 302 303 304 305 305 305 306 306 306 307 308 308 309 309 310 311
309 310 309 309 309 309 309 309 310 310 312 314 316 317 317 319 320 320 320 321 322 322 322 322 322 321 321 319 318 317 316 316 314 312 311 310 309 307 307 306 304 304 303 303 302 302 302 301 301 301 301 300 300 300 299 298 297 297 297 296 296 296 296 296 297 297 298 299 300 301 301 302 303 304 305 305 305 306 306 307 308 308 309 309 310
309 310 309 309 310 310 309 309 310 310 311 311 313 316 317 317 318 318 319 319 319 320 320 320 321 320 319 318 316 315 315 314 312 311 309 307 306 305 305 305 303 303 303 302 302 301 301 301 301 301 301 300 299 299 299 299 299 299 298 297 297 297 297 297 297 297 297 298 298 299 299 300 301 302 303 303 304 304 305 306 306 307 307 307 308
309 310 309 309 309 310 310 310 310 310 310 310 311 313 315 317 317 317 317 318 318 318 318 319 320 319 319 317 315 313 312 311 310 309 307 306 305 305 304 303 303 302 302 302 301 301 301 300 300 300 300 300 300 300 300 300 300 299 298 298 298 298 298 298 298 298 298 298 298 298 299 299 300 300 301 301 302 303 303 304 305 305 305 305 305
309 308 308 309 309 310 310 310 310 310 310 310 311 311 314 316 316 316 316 317 317 317 317 318 319 318 317 316 313 310 309 309 308 307 306 305 304 302 303 302 302 301 301 301 301 300 300 300 300 300 300 300 300 300 299 299 298 298 297 297 297 297 298 299 299 299 299 298 298 299 299 300 300 300 300 300 300 300 300 301 302 302 303 303 304
308 308 308 308 309 310 310 309 310 310 310 310 310 311 312 315 316 316 316 316 316 316 316 317 318 317 316 313 310 309 308 307 306 306 305 302 299 299 301 302 301 301 301 301 301 300 300 300 300 300 300 300 300 299 298 297 297 297 296 296 297 297 298 298 299 298 298 298 298 299 299 299 299 299 299 298 298 297 297 298 299 300 301 302 303
307 307 307 307 308 309 309 309 309 309 309 310 310 311 312 314 315 316 316 315 316 315 315 316 317 316 315 311 309 307 306 305 306 305 303 299 296 298 300 301 301 301 301 301 301 301 301 300 300 300 300 300 300 298 297 296 296 296 296 296 297 297 298 298 298 298 298 298 297 297 297 297 296 296 296 296 296 296 295 296 297 299 300 301 302
307 307 306 307 307 309 309 309 309 309 309 309 310 311 312 313 315 315 315 315 315 315 315 315 315 315 313 310 307 306 305 305 304 301 298 296 296 298 300 300 301 301 301 301 301 301 301 300 299 299 300 299 299 298 297 296 296 296 296 296 297 297 297 297 297 297 297 297 297 297 297 297 296 296 296 296 296 295 295 296 297 298 299 300 301
307 306 306 306 306 307 308 309 309 309 310 309 310 310 311 313 314 314 314 314 314 314 314 314 314 313 312 309 306 304 304 302 299 297 295 295 296 297 299 300 300 301 301 301 301 301 301 300 299 299 299 298 298 297 296 295 295 296 296 296 296 296 296 296 296 296 296 296 297 297 297 297 297 297 297 296 296 296 296 296 297 297 298 298 299
306 306 305 305 306 307 307 308 309 310 310 310 310 311 311 312 313 313 313 313 312 312 313 313 312 311 309 306 304 302 301 298 296 294 294 294 295 296 297 299 300 300 301 301 300 300 300 299 299 298 297 297 296 296 295 294 294 294 294 295 295 296 295 295 294 294 294 294 294 295 295 295 296 296 296 296 297 296 296 297 297 297 297 298 298
306 305 305 304 305 305 306 307 308 309 310 310 310 310 310 311 312 312 312 312 313 313 312 311 310 308 306 304 302 300 298 296 295 294 294 295 295 295 296 298 300 299 299 299 298 298 298 298 298 297 296 296 295 294 294 293 292 291 292 293 294 293 293 292 292 292 292 292 293 293 293 294 294 295 295 295 296 296 296 297 297 297 297 297 298
305 305 305 304 304 305 306 306 307 308 309 310 310 310 310 310 311 312 312 313 313 313 311 309 307 305 304 303 302 300 297 295 295 295 295 295 295 295 296 298 298 296 296 297 297 297 297 297 297 297 296 295 294 293 292 292 291 290 291 291 291 291 290 290 291 291 291 291 291 292 292 293 293 294 294 295 295 295 296 296 296 296 297 297 297
305 305 304 304 304 305 306 306 307 307 309 310 310 310 310 310 311 312 312 312 311 310 309 308 306 304 302 301 300 299 297 296 296 296 295 295 295 294 294 295 294 293 295 296 296 297 297 298 298 297 296 295 294 293 292 291 290 290 291 291 290 290 290 290 290 291 291 291 291 292 292 292 293 293 293 294 294 295 295 295 295 296 296 296 297
305 304 304 304 304 305 306 307 306 307 308 310 310 311 311 311 312 312 311 310 309 308 306 304 303 301 301 300 299 298 296 295 294 294 293 293 292 292 292 292 292 292 294 295 296 297 297 297 296 295 294 293 292 291 291 291 291 291 291 291 291 290 291 291 291 291 291 291 291 292 292 292 292 293 293 293 294 294 294 295 295 295 295 296 296
305 305 305 305 305 305 306 307 307 307 308 309 310 310 310 311 310 309 309 309 308 306 304 302 301 300 300 300 300 298 297 295 294 293 292 292 293 293 293 293 293 293 294 295 296 296 295 295 294 293 292 291 291 291 292 292 292 291 291 291 291 291 291 291 292 292 292 292 292 292 292 292 293 293 293 293 293 294 294 294 295 295 295 295 295
304 305 305 305 306 305 306 306 307 307 307 308 309 309 310 310 308 307 307 307 306 304 302 301 300 300 300 300 299 298 298 297 296 295 295 296 296 296 296 296 296 295 295 296 296 296 295 293 292 292 292 292 292 292 292 292 292 292 291 292 292 292 292 292 292 292 292 292 292 292 293 293 293 293 293 293 294 294 294 295 295 295 295 295 295
303 303 304 304 305 306 306 306 307 307 307 308 309 309 309 309 307 306 306 306 304 302 301 300 299 299 298 298 298 297 298 298 298 298 297 297 297 297 297 297 296 296 296 296 296 295 293 292 292 293 293 293 293 292 292 292 292 292 292 292 292 292 292 292 292 292 292 292 293 293 293 293 293 293 294 294 294 294 294 295 295 295 295 295 295
303 303 303 304 304 305 305 306 307 307 307 308 308 307 307 307 306 305 305 304 301 300 299 298 298 298 298 298 297 298 298 297 297 297 295 295 295 296 296 296 296 295 295 294 292 292 292 292 293 294 294 294 293 292 292 292 292 292 292 292 292 292 292 292 292 292 292 292 292 292 293 293 293 293 294 294 294 294 294 294 295 295 295 295 295
303 303 303 303 304 304 305 306 307 307 307 306 305 305 305 305 304 304 303 301 300 299 299 298 298 299 299 298 298 299 298 296 294 293 293 292 292 293 293 293 292 292 292 291 290 291 292 293 294 294 294 293 293 292 292 292 292 291 291 291 292 292 292 292 292 292 292 292 292 292 292 292 293 293 293 294 294 294 294 294 294 295 295 294 294
303 303 303 303 304 304 304 305 306 307 306 304 302 302 302 303 303 301 300 299 299 299 298 298 299 299 299 298 298 298 297 294 292 292 292 291 291 291 291 291 290 290 290 290 290 292 293 293 294 293 293 292 292 292 291 291 291 291 291 291 291 291 291 291 291 291 291 291 291 291 292 292 292 292 293 293 293 293 293 293 294 294 294 294 294
303 303 304 304 304 305 305 306 306 305 304 302 300 299 299 299 299 298 297 297 298 298 298 298 298 298 297 296 295 295 294 292 291 291 291 291 291 291 290 290 290 290 290 290 291 292 293 293 293 293 292 292 291 291 291 291 291 291 291 291 291 291 291 291 291 291 291 291 291 291 291 291 291 292 292 292 292 293 293 293 293 293 293 294 294
303 303 304 304 304 305 306 306 305 304 302 301 299 298 297 296 295 296 296 297 297 297 298 298 297 297 296 294 293 292 292 291 291 291 291 290 290 290 291 291 291 291 291 291 291 293 293 293 292 292 292 291 291 291 291 291 291 291 291 291 291 291 291 291 291 290 290 290 290 290 290 290 291 291 291 291 292 292 292 292 293 293 293 293 293
303 303 304 304 305 306 306 305 303 302 301 300 299 297 296 295 294 294 294 295 295 296 296 296 295 294 293 292 291 291 291 291 291 291 290 290 290 291 291 291 291 291 291 291 292 293 292 292 292 292 291 291 291 291 291 291 291 291 291 290 290 290 290 290 290 290 290 290 290 290 290 290 290 290 291 291 291 291 292 292 292 293 293 293 293
303 303 304 305 306 306 305 303 301 301 300 299 298 297 296 296 295 294 293 293 293 293 293 293 292 292 291 291 291 291 291 291 291 291 290 290 290 291 292 292 292 292 292 292 292 292 292 292 291 291 291 291 291 291 291 291 291 290 290 290 290 290 290 290 289 289 289 289 289 289 289 290 290 290 290 291 291 291 292 292 292 293 293 293 293
304 304 305 305 306 305 303 301 300 300 299 298 297 296 295 295 294 294 293 293 293 292 292 291 291 291 291 291 291 291 291 291 291 291 291 291 291 292 292 293 293 292 292 292 292 292 291 291 291 291 290 291 290 290 291 290 290 290 290 290 290 290 289 289 289 289 289 289 289 289 289 289 290 290 290 291 291 291 291 292 293 293 293 293 293
305 305 305 305 304 303 300 299 299 299 299 297 296 295 294 295 295 294 294 294 294 293 293 292 291 290 290 291 291 291 291 291 292 292 292 292 292 293 293 293 293 292 292 292 292 291 291 291 290 290 290 290 290 290 290 290 290 290 290 289 289 289 289 289 289 289 289 289 289 289 289 289 289 290 290 290 290 291 291 292 293 293 293 293 293
304 304 304 303 302 301 300 299 299 299 298 297 296 295 295 295 296 295 295 295 295 295 294 293 291 291 291 291 291 291 291 292 293 293 293 293 293 293 294 293 292 292 292 292 291 291 290 290 290 290 290 290 290 290 290 290 290 289 289 289 289 289 289 289 289 289 288 288 289 289 289 289 289 289 290 290 290 291 291 292 292 293 293 292 292
302 302 302 302 301 300 300 299 298 298 297 297 297 296 296 296 296 297 297 297 296 296 295 294 294 294 293 292 291 292 292 293 293 294 294 293 294 294 294 293 292 291 291 291 291 291 290 290 290 290 290 290 290 290 290 289 289 289 289 289 289 289 289 289 288 288 288 288 288 289 289 289 289 289 289 290 290 290 291 291 292 292 292 292 292
301 301 301 300 300 299 299 298 297 297 297 297 297 297 297 297 297 298 298 297 297 297 297 296 296 296 296 294 293 293 293 293 294 295 295 295 294 294 294 293 292 291 291 291 291 291 290 290 290 290 290 290 290 289 289 289 288 288 288 288 288 288 288 288 288 288 288 288 288 289 289 289 289 289 290 290 290 290 291 291 291 292 292 292 292
299 299 299 299 298 298 297 297 297 297 297 297 297 297 297 297 298 298 298 298 298 298 298 297 297 297 296 295 295 295 295 295 295 295 295 295 294 294 293 293 292 291 291 291 291 290 290 290 290 290 290 290 289 289 288 288 288 288 288 288 288 288 288 288 288 288 288 288 288 289 289 289 289 289 290 290 290 291 291 291 292 292 292 292 293
298 298 298 297 297 297 297 297 297 297 297 297 297 298 298 298 298 298 298 298 298 298 298 298 296 295 295 294 294 294 295 296 296 295 295 294 294 294 293 292 292 291 291 291 290 290 290 290 290 290 290 289 289 288 288 288 288 288 288 288 288 288 288 288 288 288 288 288 288 288 289 289 289 289 289 290 290 290 291 292 292 292 292 292 293
298 298 297 297 297 297 297 298 298 298 298 298 298 298 298 298 298 298 298 298 298 298 298 297 295 293 293 293 292 293 295 295 294 294 294 294 293 293 293 292 292 291 291 290 290 290 290 290 290 290 289 289 289 288 288 288 288 287 287 287 287 287 287 287 287 287 288 288 288 288 288 288 289 289 289 290 291 291 291 292 292 292 293 293 293
298 298 298 297 298 298 298 298 298 298 298 298 298 298 298 298 298 298 298 298 298 297 297 296 294 292 291 291 291 292 294 294 293 293 293 293 293 293 293 292 292 291 290 290 290 290 290 290 289 289 289 289 288 288 288 287 287 287 287 287 287 287 287 287 287 287 287 287 288 288 288 289 289 289 290 291 292 293 292 292 292 293 294 294 294
298 298 298 298 298 298 298 298 297 297 298 298 298 299 299 298 298 298 298 297 297 297 297 296 295 293 292 292 292 293 294 294 293 293 293 292 292 292 292 292 291 290 290 290 290 289 289 289 289 289 289 289 288 288 287 287 287 287 287 287 287 287 287 287 287 287 288 288 288 289 289 289 289 290 291 292 294 294 294 294 294 294 295 295 294
297 298 298 298 298 298 297 297 297 297 298 298 298 298 298 298 298 297 297 297 296 296 295 295 295 295 294 294 294 294 294 293 293 293 293 293 292 292 292 291 291 290 290 290 290 289 289 289 289 289 289 289 288 287 287 287 287 287 287 287 287 287 287 287 287 288 288 288 289 289 289 289 290 290 291 292 294 295 295 295 295 295 295 294 293
297 298 298 298 298 298 298 298 298 298 298 298 298 297 297 296 296 295 295 295 295 295 295 295 294 294 294 294 294 293 293 292 292 292 292 292 291 291 291 290 289 289 290 290 289 289 289 289 289 289 289 288 287 287 287 287 287 287 287 287 287 287 288 288 289 289 289 289 289 289 290 290 290 291 291 292 293 294 294 294 294 294 294 293 293
297 297 297 297 297 297 296 296 296 296 296 296 296 296 296 295 294 294 293 293 294 294 295 294 294 294 293 293 292 292 291 291 291 291 290 290 290 289 289 289 288 288 289 289 289 289 289 289 289 289 288 288 287 287 287 287 287 286 287 288 288 289 289 289 289 289 290 290 290 290 290 290 290 291 291 292 292 293 293 293 293 293 293 292 292
296 296 297 297 296 296 296 295 295 295 294 294 294 294 294 294 294 294 293 293 293 294 294 293 293 293 292 292 291 291 290 290 289 290 291 291 290 289 288 287 287 287 288 289 289 289 289 289 289 289 288 288 287 287 287 287 287 286 287 288 289 289 290 290 289 290 290 290 290 290 290 290 290 290 291 291 292 292 292 293 293 293 292 292 292
295 295 295 295 295 296 296 296 295 295 295 294 294 293 293 293 293 293 293 293 293 293 293 292 292 292 291 291 290 290 290 289 289 289 290 291 290 288 287 287 286 286 287 288 289 289 289 289 289 289 288 288 287 287 287 287 286 286 287 289 290 290 290 290 290 290 290 290 290 290 290 290 290 291 291 291 291 292 292 292 292 292 292 292 292
294 294 294 294 294 294 295 295 295 295 294 294 293 293 292 292 292 292 292 292 292 291 291 291 291 291 290 290 289 289 289 288 288 289 289 289 288 287 286 286 286 286 287 288 289 289 289 289 289 289 288 288 288 288 287 287 286 286 288 290 290 290 290 290 290 290 290 290 290 290 290 290 291 291 291 291 291 291 291 291 291 292 292 292 292
294 294 294 294 294 293 293 294 294 293 293 293 293 292 292 292 292 291 291 291 290 290 290 290 290 289 289 288 288 287 287 286 287 287 288 288 287 286 286 285 285 286 287 288 289 289 288 288 289 289 288 288 288 288 288 287 286 287 288 290 290 290 290 291 290 290 290 290 290 290 290 290 291 291 291 291 291 291 291 291 291 291 291 291 292
Wind_Speed
9 9 10 12 12 12 11 12 12 11 12 12 12 12 11 11 12 13 13 14 15 17 17 17 18 17 16 16 15 14 14 13 12 11 10 9 8 8 7 7 7 7 6 5 5 4 3 3 3 3 3 3 3 4 4 4 5 6 6 6 6 6 7 9 10 11 12 12 13 14 13 14 14 14 14 15 15 15 15 15 15 16 16 17 17
7 8 9 9 9 9 8 9 9 8 12 15 13 10 9 9 11 13 14 15 16 17 18 18 19 19 18 17 17 16 15 15 14 13 11 11 10 9 9 9 8 7 7 6 6 5 4 4 3 3 3 4 4 5 5 5 5 6 6 6 7 7 7 9 10 11 12 13 13 14 14 13 14 14 13 14 15 15 16 16 17 17 17 17 17
6 6 6 8 8 8 7 9 9 9 13 15 12 11 14 14 13 13 14 15 16 18 19 19 19 20 19 19 18 17 17 16 16 15 14 14 13 11 11 10 9 9 8 8 7 6 5 5 4 4 4 4 5 6 6 6 6 6 6 7 8 9 9 9 10 11 13 14 13 14 13 13 13 14 15 15 15 15 16 17 17 17 18 18 18
1 2 3 4 6 7 6 7 9 11 13 13 11 12 16 19 19 17 16 17 17 18 19 20 20 20 20 20 19 19 19 18 18 17 16 16 14 13 12 12 11 10 9 8 8 7 6 5 5 4 4 4 5 6 6 6 6 7 8 8 9 9 9 9 10 11 13 14 14 14 14 15 15 15 15 15 15 15 16 16 16 17 17 17 18
7 5 3 2 2 3 4 6 7 9 10 10 11 11 13 16 18 18 18 20 20 19 19 20 21 21 21 21 22 22 22 21 20 18 17 16 15 14 13 12 12 11 10 9 8 7 6 6 5 5 4 5 5 5 6 6 7 8 9 9 10 10 10 10 11 12 14 15 16 16 15 16 16 16 15 15 16 15 15 15 16 17 17 17 17
10 9 7 6 5 4 1 2 6 8 10 10 10 11 12 13 14 15 15 17 19 20 21 21 21 21 23 23 23 23 22 21 20 19 18 17 16 15 14 13 12 11 10 9 8 7 7 6 5 5 5 5 5 6 6 7 8 9 10 10 11 11 11 12 12 13 15 16 16 17 16 16 16 16 15 15 15 15 15 15 16 16 17 17 17
11 10 8 7 8 9 7 4 4 5 5 5 6 8 11 13 13 14 14 15 17 19 21 21 22 23 24 23 23 23 22 21 20 19 18 18 17 16 15 13 12 11 10 9 8 8 7 6 6 5 5 5 5 5 6 6 7 8 10 10 11 12 12 13 13 14 15 16 16 16 16 16 16 16 15 15 15 15 15 15 15 14 14 14 14
10 9 7 7 8 8 6 6 5 5 4 3 3 4 7 11 12 14 15 15 17 19 19 20 23 25 25 24 23 22 21 21 20 19 18 17 17 16 15 14 12 11 10 9 9 8 8 7 7 6 6 6 6 6 6 7 8 9 9 10 11 12 13 14 14 14 15 16 16 16 16 16 15 15 15 14 14 14 13 13 14 14 14 15 16
9 8 7 7 7 5 4 4 4 5 5 4 4 4 6 8 11 14 15 16 18 19 19 18 20 23 24 24 23 22 22 22 22 21 20 18 16 15 13 13 12 11 10 9 9 8 8 8 8 8 9 10 9 10 11 10 9 10 10 10 11 12 13 14 14 15 15 16 16 16 16 16 15 15 14 13 14 14 14 15 16 16 17 18 18
7 6 6 5 5 5 4 3 3 4 5 5 5 5 6 7 9 11 13 15 17 19 19 18 19 21 22 24 24 23 22 22 22 24 22 19 16 14 13 11 11 10 9 9 9 9 8 8 9 11 13 12 11 11 11 10 10 10 11 11 11 13 14 15 15 16 16 16 16 16 16 17 16 16 16 15 15 16 17 17 17 18 18 17 17
3 3 4 5 5 5 5 5 5 5 6 6 6 7 7 9 9 10 11 12 14 16 17 17 20 23 23 25 25 23 20 20 22 25 24 20 16 14 12 11 10 10 9 9 9 9 9 8 8 10 12 11 10 9 9 9 11 11 11 11 12 14 15 16 17 17 17 17 17 17 17 18 18 17 17 17 16 17 17 17 17 17 16 15 15
1 0 1 3 4 3 4 5 5 6 6 7 7 8 9 10 10 11 11 9 10 12 13 14 17 19 20 21 20 18 17 19 23 25 25 22 18 14 11 11 10 10 10 10 9 8 9 8 8 8 9 9 9 9 10 12 13 12 11 12 14 16 17 17 18 18 18 18 19 19 18 19 19 18 17 17 17 17 17 17 17 17 17 16 16
1 1 1 2 3 3 3 4 5 6 6 7 8 9 10 10 11 10 10 9 9 9 10 12 11 13 15 15 15 14 14 19 24 25 25 23 19 13 10 10 10 10 10 10 9 8 8 8 8 8 8 9 10 10 11 12 11 10 11 13 16 18 19 19 19 19 20 20 21 21 20 20 20 19 17 18 19 19 18 18 18 18 19 19 19
2 2 2 3 3 3 3 4 5 6 7 8 9 10 10 10 10 10 10 9 9 9 11 13 13 15 17 15 14 14 17 21 25 26 24 19 14 10 8 9 10 9 10 10 9 9 8 8 9 8 8 8 9 9 9 9 10 10 11 14 16 18 20 21 22 23 24 24 25 24 22 21 22 21 20 20 20 19 19 19 19 20 21 22 22
2 2 3 4 3 3 3 5 6 7 8 9 10 10 11 11 11 11 10 10 10 11 11 13 16 19 17 15 16 17 20 23 25 24 20 15 13 12 9 9 9 9 9 10 10 10 9 9 10 9 9 9 10 10 10 10 11 13 14 16 17 19 19 20 21 22 24 26 27 26 24 23 22 22 21 20 20 20 21 21 21 22 23 24 25
3 3 4 5 4 4 4 6 7 8 9 9 10 11 11 11 11 11 11 11 11 11 12 13 16 16 13 15 17 19 22 24 23 20 16 14 15 13 9 9 9 9 9 10 10 10 10 10 10 10 9 10 10 11 11 12 13 15 16 17 18 19 19 19 20 22 24 26 27 28 28 28 27 27 26 26 28 29 28 26 23 21 22 23 23
4 5 5 6 5 5 6 7 8 8 9 10 11 11 11 10 11 11 11 11 11 11 12 12 12 12 14 15 16 22 25 23 20 18 16 16 16 11 8 8 9 9 9 10 11 11 11 11 10 10 10 10 12 14 15 16 15 15 17 18 18 19 19 19 21 23 24 26 28 29 31 31 31 31 30 31 33 32 30 27 23 21 23 21 20
6 6 7 6 6 7 7 8 9 9 10 10 10 11 11 10 11 11 11 11 11 11 11 10 8 11 14 14 17 24 26 21 18 18 17 17 15 11 8 7 8 9 9 10 11 10 11 12 12 12 12 13 14 16 17 17 15 15 17 18 18 20 20 20 21 22 23 24 27 28 29 29 29 30 31 31 30 28 28 26 22 23 26 24 21
7 8 8 8 8 8 8 9 9 9 9 9 10 10 11 11 11 11 11 11 11 10 11 10 10 12 15 14 17 23 23 20 18 18 17 16 14 12 8 6 8 9 9 10 10 9 10 11 12 12 13 14 15 15 15 16 15 15 17 18 20 23 23 22 21 22 22 23 24 25 25 25 26 28 28 28 27 26 27 26 23 24 28 28 27
10 10 11 11 10 10 10 10 10 9 9 9 9 10 11 11 11 11 12 12 11 9 8 10 13 14 14 13 14 18 20 19 17 16 16 14 12 12 9 7 8 9 8 8 8 9 9 9 8 7 7 10 12 14 15 16 15 15 16 18 20 23 25 24 24 24 25 25 24 25 26 25 25 26 27 27 26 26 27 26 25 26 28 30 30
12 12 13 13 13 13 12 11 11 11 11 10 10 11 12 12 12 12 12 11 10 7 8 14 15 15 14 12 12 14 17 18 17 15 14 13 12 12 9 7 7 6 6 7 8 9 9 8 7 6 6 8 10 13 15 17 19 19 19 19 22 25 27 27 26 26 27 27 26 26 26 25 25 25 25 26 25 24 25 25 25 26 28 28 28
14 14 15 15 14 14 13 13 13 13 12 11 12 12 12 13 12 11 10 6 4 9 14 17 17 16 14 12 12 14 15 16 15 14 12 10 10 10 8 7 7 6 6 7 7 9 10 9 8 8 9 12 16 19 21 22 23 21 20 21 22 24 25 25 24 24 25 25 24 24 23 23 23 23 24 24 23 23 23 24 24 25 27 28 28
15 16 16 16 16 15 15 14 15 14 13 12 12 12 12 13 12 10 6 6 12 15 16 17 17 16 14 13 13 14 14 13 12 11 10 8 8 8 7 8 8 6 5 7 8 9 10 10 11 13 15 19 23 25 25 24 21 19 18 19 20 21 22 23 23 23 24 24 24 24 23 23 23 23 23 23 22 22 22 23 24 24 25 26 28
17 18 18 17 17 16 16 16 16 15 14 12 12 12 12 10 7 6 8 11 14 15 16 16 16 15 14 13 13 13 12 10 9 7 6 5 5 5 5 6 6 5 5 7 8 9 10 12 14 18 20 23 23 23 23 22 20 19 19 20 21 21 22 22 22 22 23 23 23 23 23 22 22 23 23 22 22 22 22 22 23 23 24 25 25
17 18 18 18 18 17 17 17 16 15 14 12 12 12 10 5 6 8 10 12 15 17 16 16 16 15 14 13 13 13 11 9 7 5 4 2 2 1 3 4 4 5 6 6 7 9 11 13 15 17 19 20 19 20 20 19 19 20 20 21 22 22 21 21 21 21 22 22 22 23 23 22 23 23 24 24 23 23 22 23 23 23 24 25 26
19 19 19 19 18 18 18 17 16 16 14 13 12 11 8 8 9 9 11 13 16 18 17 15 15 15 14 13 13 12 11 10 8 6 4 2 1 3 5 4 5 9 9 7 7 8 10 12 14 16 17 16 16 17 18 19 20 20 20 20 20 20 19 20 20 20 21 22 22 23 23 23 23 24 24 24 24 23 22 22 23 23 23 25 26
23 22 21 20 19 19 19 17 16 16 13 9 8 9 10 11 10 12 15 16 17 18 17 16 16 16 15 15 14 12 11 10 8 5 3 2 1 4 5 4 6 8 9 8 9 11 12 14 15 15 15 14 15 17 18 18 19 19 18 18 18 18 19 20 21 22 23 23 24 24 24 24 24 24 24 24 23 22 22 23 23 23 23 23 23
24 23 23 23 21 20 19 17 16 15 12 7 7 10 11 11 12 15 18 19 20 20 18 18 18 17 15 14 13 12 12 11 9 6 4 2 1 3 4 4 6 6 7 10 13 14 13 13 13 13 14 14 15 16 17 17 17 18 18 18 18 19 20 21 22 22 23 23 24 24 24 24 23 23 23 24 23 23 23 23 24 24 24 23 21
24 24 24 24 23 21 19 17 16 14 10 8 8 9 10 12 15 16 18 21 22 19 17 19 17 15 14 13 10 10 12 11 7 4 3 2 0 2 4 5 6 6 8 11 12 11 10 10 11 13 14 14 16 16 16 17 18 18 19 19 20 20 21 21 22 23 23 23 24 23 23 23 23 23 22 23 23 23 22 23 24 24 25 24 22
24 24 24 24 23 21 19 17 13 10 9 11 12 11 11 14 16 19 22 23 21 18 20 20 15 13 14 13 10 10 11 9 6 4 3 2 1 3 4 5 6 8 10 10 9 8 9 11 12 13 14 15 15 16 17 18 19 19 20 20 20 21 21 22 22 23 23 23 23 24 24 23 23 23 23 23 22 22 22 24 26 26 25 24 23
23 23 23 23 22 21 19 14 11 12 14 15 17 19 20 19 19 21 24 23 20 19 20 19 14 13 14 14 12 11 10 8 7 6 3 2 3 3 3 5 8 11 13 11 8 9 11 12 13 14 14 15 15 16 18 19 19 20 21 21 21 21 21 21 22 23 23 23 23 24 24 23 22 23 23 24 24 23 23 25 26 26 26 26 25
24 24 23 22 21 20 17 14 15 18 19 18 18 21 25 25 23 22 21 19 18 18 18 16 15 15 15 13 13 12 10 9 8 5 4 3 3 4 6 8 9 12 14 11 9 10 12 13 14 14 15 15 16 17 18 19 20 20 21 21 21 21 22 22 23 24 25 25 25 24 24 24 23 23 24 24 24 24 24 24 24 25 26 26 26
26 25 22 21 19 17 14 15 18 21 21 21 19 19 20 21 21 22 21 19 18 19 17 15 14 15 14 13 12 12 12 10 8 5 4 4 4 6 7 8 8 11 13 11 10 11 13 13 14 14 15 16 17 18 18 19 20 21 21 22 22 23 23 23 24 25 26 26 26 26 26 25 25 25 25 25 24 24 24 23 23 24 24 23 23
26 25 23 20 16 15 17 21 23 23 22 22 21 19 18 19 20 21 21 19 17 17 16 14 12 12 12 12 11 11 11 9 6 5 6 7 7 7 7 7 6 7 8 8 10 13 14 14 14 15 15 16 17 18 19 20 21 22 22 22 23 24 25 25 25 26 26 25 25 25 25 25 25 25 24 23 23 23 23 22 22 22 21 21 21
25 25 25 21 18 19 22 24 24 23 23 24 24 22 22 23 23 22 20 18 16 16 15 14 12 11 12 12 11 11 10 8 6 7 10 12 11 9 7 7 6 5 6 8 11 13 13 14 15 15 16 17 18 19 20 21 22 23 24 24 25 26 27 27 26 25 25 26 26 26 25 25 25 25 24 23 23 23 22 21 20 20 21 21 20
23 23 24 22 22 24 26 26 25 25 26 27 27 26 26 25 23 21 19 17 15 14 14 14 13 13 12 11 11 9 7 6 7 8 11 13 13 10 8 8 8 7 8 10 12 13 13 14 15 15 16 17 18 19 20 21 22 23 24 25 26 26 25 25 24 25 26 27 28 27 26 26 25 24 23 23 24 23 23 22 21 21 22 21 19
18 19 21 24 27 29 29 27 26 27 28 28 26 25 24 22 20 19 18 16 15 15 14 14 14 13 11 10 9 8 6 7 7 7 6 7 8 8 8 9 8 8 9 11 12 12 13 14 14 15 16 18 18 20 22 22 22 23 25 25 26 25 25 26 27 28 29 28 27 26 25 26 26 25 24 23 23 22 22 21 21 22 23 22 20
24 25 29 31 32 30 28 27 28 29 29 26 24 23 21 20 18 17 17 16 16 15 14 13 13 12 11 10 9 7 6 6 4 1 1 2 3 6 9 9 8 8 10 11 12 12 13 14 14 15 17 18 19 21 22 22 22 23 25 26 26 25 26 28 28 28 27 26 25 25 24 24 25 24 24 24 24 23 22 22 21 20 21 21 20
29 31 34 34 32 30 29 30 30 29 26 23 21 20 19 18 17 16 16 16 15 14 13 12 11 10 10 10 8 7 8 7 4 1 1 3 4 6 8 9 8 9 10 11 11 12 13 14 15 16 17 19 20 22 24 25 24 25 27 27 26 26 27 27 27 26 26 26 25 24 24 23 23 22 21 22 22 22 22 22 21 20 18 18 18
30 32 34 34 32 31 32 32 29 25 23 22 21 20 19 19 17 16 15 14 13 12 11 10 8 8 9 8 6 6 6 4 2 1 3 4 5 6 7 8 8 10 10 10 11 12 13 14 16 17 19 20 21 23 25 27 26 26 27 27 27 28 27 27 26 27 27 27 26 24 23 22 21 20 19 19 20 20 20 19 19 19 19 17 16
30 32 33 34 35 34 33 29 25 23 22 21 21 19 17 17 16 15 14 13 11 10 10 9 8 8 8 8 6 4 1 1 2 2 1 3 4 6 6 7 8 9 10 10 11 12 13 15 16 18 19 20 20 22 24 25 25 25 26 26 27 27 26 25 26 27 27 27 26 24 23 22 21 20 20 20 20 21 20 18 17 17 17 17 16
30 31 32 33 32 30 27 24 23 23 21 20 19 17 15 15 15 14 13 11 10 10 9 9 8 8 8 7 6 5 1 2 2 1 1 2 3 4 5 7 8 9 9 10 10 11 13 15 16 18 19 19 20 23 25 25 26 27 27 26 26 27 26 26 26 26 26 26 25 23 23 23 22 21 21 21 20 18 16 15 14 14 14 15 16
26 26 27 25 22 20 19 19 20 19 16 15 15 15 13 13 13 12 11 10 9 9 9 8 8 7 5 4 4 4 2 1 1 1 1 1 2 3 5 7 7 8 9 9 10 11 12 14 16 17 17 18 22 26 27 26 27 27 26 25 25 26 26 27 27 27 27 25 25 24 23 22 21 19 19 18 16 13 12 12 13 13 13 13 13
22 21 20 19 16 15 17 19 20 20 19 17 15 12 12 12 12 11 10 10 8 8 7 7 7 6 5 3 3 3 1 1 1 0 1 2 2 4 5 6 7 8 9 9 10 10 12 14 16 16 16 17 22 26 26 26 27 28 27 26 26 26 27 29 30 28 26 25 24 24 22 20 18 17 16 15 12 10 10 11 11 11 10 8 8
18 17 17 17 17 17 18 18 18 18 17 16 14 13 12 12 12 11 10 10 9 8 7 6 5 5 4 3 2 1 0 0 0 1 1 2 3 4 5 6 7 7 8 9 10 10 12 14 16 17 16 18 22 26 26 25 26 28 29 29 28 28 29 30 28 26 24 23 22 21 19 18 17 15 14 13 10 7 7 7 6 7 7 7 8
15 15 16 17 17 17 16 16 15 14 13 12 12 12 12 12 12 11 10 9 8 7 6 5 5 4 3 2 1 0 0 0 1 1 2 2 3 4 5 6 6 7 8 9 10 10 12 13 15 17 19 21 24 28 29 26 26 28 31 32 30 29 29 28 26 24 22 20 19 19 17 16 14 13 12 10 8 5 4 4 4 5 6 7 7
16 15 15 16 16 16 16 15 15 14 14 13 13 12 12 11 11 11 10 10 9 7 5 4 4 3 3 2 1 0 1 1 1 1 2 3 4 5 5 6 7 7 8 9 9 10 11 13 15 18 21 23 27 30 30 29 29 32 34 33 31 29 28 26 26 24 21 18 17 17 15 14 13 12 10 8 6 4 2 2 2 4 6 6 8
16 16 15 15 15 15 14 14 14 14 14 13 13 13 12 11 11 10 9 9 8 6 5 4 3 3 3 2 0 1 1 1 1 1 1 3 4 5 6 6 6 7 7 8 9 9 10 12 14 17 20 23 27 30 31 30 31 33 34 32 30 29 27 26 25 24 20 17 17 16 14 13 13 13 10 8 7 5 3 3 2 4 7 9 11
17 16 15 15 15 14 13 13 13 13 13 12 12 12 11 11 10 9 9 8 7 5 4 3 3 3 2 1 1 1 1 1 1 1 1 2 4 5 6 6 6 7 7 8 9 9 9 10 13 17 19 22 26 29 31 31 32 33 32 30 29 28 27 25 24 23 20 18 18 17 15 14 13 13 12 11 9 8 6 6 5 7 9 12 15
17 16 15 15 14 14 13 13 13 13 12 11 11 11 11 10 10 9 8 7 6 5 4 3 3 3 2 1 1 1 1 1 1 1 1 2 4 5 6 6 6 7 7 8 9 9 9 9 12 15 18 21 24 28 30 31 32 31 30 28 27 27 27 26 25 23 21 19 18 18 17 16 15 15 14 13 12 11 10 9 9 11 13 14 15
16 15 15 14 14 13 13 13 13 12 12 11 11 10 10 10 9 8 7 6 6 5 4 4 3 3 2 2 2 2 2 2 2 1 2 3 4 5 6 6 7 7 8 8 8 8 8 9 11 14 17 20 23 25 28 30 30 29 28 27 26 26 27 27 26 24 22 19 18 17 18 18 19 18 16 14 14 14 14 13 13 14 15 15 15
Wind_Direction
167 174 182 192 200 205 206 209 216 215 210 219 232 232 225 223 224 217 208 205 198 192 191 189 187 187 189 189 188 186 184 181 181 182 182 184 184 182 181 188 192 186 187 193 191 196 213 221 220 220 241 271 276 267 261 254 258 266 266 267 277 283 284 285 287 290 294 296 297 297 298 300 298 292 290 290 290 292 289 286 284 280 276 274 273
188 186 183 192 203 210 216 220 228 232 218 215 223 237 245 249 250 244 231 220 213 204 199 195 192 191 192 193 193 192 190 188 185 186 189 188 186 187 189 194 197 193 194 202 200 197 212 233 231 225 243 264 270 275 278 274 273 276 274 272 278 284 284 285 288 292 295 298 298 296 295 296 293 290 291 289 290 291 288 286 285 281 278 276 275
206 198 192 196 200 205 220 228 231 239 236 229 226 231 237 239 246 253 249 239 227 219 213 205 198 196 195 195 196 196 195 193 190 190 193 191 190 192 193 197 199 196 200 206 205 201 205 221 227 223 239 257 263 275 283 280 279 285 286 282 280 280 278 276 279 284 289 292 294 295 296 296 293 291 290 287 287 286 284 283 281 279 277 276 275
150 180 189 203 205 206 215 229 232 231 235 240 240 237 239 241 240 240 241 240 238 237 232 218 206 202 199 196 197 198 198 197 195 195 195 194 195 195 195 198 199 200 205 206 205 206 209 221 225 220 234 254 264 274 279 279 283 290 292 287 282 281 278 274 271 276 283 287 290 291 293 294 291 289 289 288 286 283 282 282 280 279 278 276 274
55 77 93 114 175 222 226 229 234 228 226 235 241 240 244 246 241 235 231 232 233 237 238 228 218 212 206 201 200 200 199 198 196 197 197 196 198 198 197 199 199 200 205 205 207 212 216 221 224 224 236 254 266 276 284 289 292 294 293 292 292 292 291 287 281 280 282 286 288 290 290 289 288 288 288 287 287 285 283 283 283 283 282 279 276
57 60 66 86 93 77 43 257 253 239 227 228 234 237 240 242 242 239 237 237 232 229 233 236 231 223 215 209 205 201 199 199 197 197 198 197 197 199 199 199 200 200 202 205 210 213 215 221 223 226 239 253 265 275 284 289 290 291 293 293 293 295 294 290 287 285 284 285 287 289 289 288 288 287 286 284 284 285 285 285 285 283 280 277 273
64 62 58 64 76 73 60 31 310 274 246 237 242 244 247 250 249 245 245 249 247 243 241 238 235 233 228 218 212 206 200 197 197 198 199 197 196 197 198 197 198 198 199 204 208 207 210 217 217 220 235 249 260 271 282 287 287 288 290 291 292 293 292 290 287 286 285 284 285 286 287 288 287 286 288 287 283 281 282 284 285 285 283 281 281
60 64 57 46 53 58 53 37 355 329 335 324 294 275 266 265 262 255 248 247 250 254 252 241 234 237 237 226 217 210 201 196 196 199 199 197 196 196 195 195 196 195 197 201 203 203 208 212 215 221 225 226 234 253 269 278 284 289 292 294 295 294 292 290 288 286 285 284 283 284 285 285 285 285 288 289 286 284 286 291 293 294 292 290 291
51 54 50 40 40 42 39 32 357 321 315 317 308 299 291 284 282 277 268 259 253 253 253 247 236 234 235 228 220 213 206 199 195 195 196 194 194 193 192 194 194 192 195 198 197 201 208 211 214 216 215 222 241 259 263 263 268 277 286 292 296 296 294 292 290 288 286 286 285 286 286 284 284 287 288 288 288 291 296 297 294 292 290 288 285
47 44 39 26 17 16 12 0 330 303 303 307 303 301 295 282 277 277 270 261 256 252 250 246 239 235 233 231 229 221 210 203 197 193 190 189 189 187 186 191 195 193 195 197 196 202 210 215 221 224 228 243 265 270 260 259 268 272 275 283 291 295 296 293 291 290 289 288 287 288 288 286 286 288 288 289 290 291 292 291 290 291 292 289 286
55 33 23 7 354 351 342 329 320 313 311 305 294 288 279 267 260 259 257 254 255 254 250 246 242 237 235 236 232 219 204 202 200 192 186 183 180 178 179 187 195 197 198 198 201 207 215 222 231 235 238 250 266 267 259 270 284 280 272 277 286 290 291 288 285 285 286 286 286 286 286 285 286 288 288 290 290 289 289 288 287 289 289 287 288
124 11 358 337 327 327 318 308 304 302 295 288 281 272 266 262 255 251 251 251 256 259 258 255 245 232 227 226 215 201 200 205 199 189 182 176 168 165 175 187 192 198 204 206 209 213 217 225 230 235 240 244 254 262 266 276 283 277 269 277 283 284 284 281 276 277 278 280 283 281 281 284 287 288 289 293 296 296 294 292 289 288 289 287 287
190 241 257 277 286 295 300 296 291 288 284 283 280 269 261 259 255 254 251 247 251 254 256 260 246 217 212 209 195 194 205 200 191 185 179 173 167 164 179 190 192 200 207 209 214 219 225 233 235 239 245 250 255 260 263 273 281 276 275 281 283 281 280 276 270 268 268 271 274 275 276 280 283 284 288 296 302 301 295 290 287 286 284 282 283
217 241 258 273 278 284 294 296 295 293 290 288 284 275 267 261 257 258 255 247 242 240 245 249 240 228 225 214 198 199 197 188 186 184 180 181 186 189 192 193 195 204 210 211 219 227 231 238 243 247 250 253 259 262 264 275 283 281 281 282 282 284 282 278 273 267 263 261 263 268 272 275 277 279 284 291 296 296 295 294 294 292 287 282 282
255 261 276 286 288 291 297 301 301 298 295 291 285 278 269 260 257 256 254 250 242 237 239 236 234 238 231 204 190 191 187 184 187 186 184 188 190 183 183 192 200 212 218 218 225 231 234 238 243 248 253 257 262 262 263 272 280 283 286 285 286 287 283 279 274 268 263 259 257 261 265 268 272 275 277 282 286 288 293 297 299 300 295 286 281
276 288 299 298 295 297 300 304 304 301 298 292 284 279 270 258 253 251 251 253 247 241 240 233 229 227 205 183 188 189 183 184 187 185 182 177 171 172 184 197 207 219 224 227 234 236 237 240 244 248 253 257 263 267 271 275 278 283 286 288 288 286 281 280 277 272 269 266 263 263 267 270 273 275 275 277 280 283 288 291 293 294 289 282 278
283 293 297 295 296 297 297 297 298 298 298 293 286 282 274 260 253 248 246 247 244 243 242 236 226 207 180 173 188 189 181 181 184 180 174 167 164 172 194 203 214 226 229 232 239 241 242 242 245 253 258 260 268 276 280 279 278 281 285 287 288 286 285 286 284 279 276 274 272 271 271 273 274 276 278 280 281 282 283 281 279 279 275 272 272
281 288 291 289 286 284 284 286 289 290 291 292 291 286 277 265 256 249 245 244 241 242 240 226 205 192 184 179 186 187 180 174 173 171 167 164 164 171 190 217 232 233 235 239 241 247 252 249 250 256 262 266 271 275 276 276 276 280 285 287 286 286 289 290 288 286 283 280 279 278 277 276 275 274 276 279 280 280 275 269 266 266 264 264 268
279 283 288 287 282 280 280 279 280 282 285 288 289 286 279 269 258 252 252 250 246 247 238 211 179 176 186 183 179 180 174 165 165 166 162 164 167 166 177 226 242 236 242 249 249 256 264 268 271 268 264 265 267 268 270 274 277 281 285 285 285 287 291 293 290 289 289 288 286 285 283 281 277 274 273 272 273 272 268 266 263 259 258 259 263
277 282 284 282 279 278 278 277 277 278 282 285 285 282 277 269 261 256 255 253 252 252 226 184 163 165 173 168 160 164 164 160 162 165 164 164 167 170 186 237 254 245 250 261 266 272 278 286 290 278 262 258 258 260 266 271 276 283 284 281 281 285 289 291 289 289 290 291 288 284 282 280 277 275 273 271 269 266 263 261 258 256 257 258 258
273 277 279 279 277 276 275 278 280 279 281 282 280 278 274 268 262 257 256 259 259 237 168 147 151 161 161 149 139 148 157 158 157 161 164 165 170 181 200 246 259 255 269 277 280 287 289 293 297 289 285 286 283 285 289 290 293 293 285 279 279 282 285 287 287 285 283 283 282 279 278 276 274 272 270 269 266 263 261 258 254 252 254 256 256
270 271 273 272 272 271 271 273 275 276 277 277 276 275 271 264 259 257 258 255 201 166 150 145 152 156 149 138 129 136 149 154 153 158 166 171 181 191 208 244 254 263 285 288 286 291 292 292 292 289 293 302 304 306 306 305 304 298 288 283 284 287 288 288 287 283 278 277 277 276 274 273 272 270 269 268 265 263 261 258 256 254 253 254 255
269 269 270 271 269 268 265 265 266 266 266 269 272 272 269 266 261 250 224 150 134 139 143 148 151 146 138 135 131 135 145 147 146 156 167 175 192 201 213 240 252 261 281 288 290 293 293 292 288 284 288 294 299 303 306 307 306 300 295 293 294 294 293 289 285 280 276 274 273 272 271 271 270 269 268 267 266 265 263 260 259 258 257 257 256
270 269 268 267 265 262 259 259 259 258 258 260 264 268 270 269 249 205 168 146 142 143 141 142 141 136 133 133 132 136 143 142 142 157 169 179 200 212 228 249 261 276 289 292 294 293 292 291 288 287 291 296 300 306 309 309 307 304 301 301 300 296 291 286 282 279 277 274 271 270 270 269 268 268 268 268 268 268 266 264 263 260 259 259 258
269 271 270 267 263 259 257 256 255 254 253 254 262 269 264 223 168 159 157 156 157 154 148 144 142 139 140 142 142 144 147 144 138 133 129 152 191 260 300 295 311 335 327 303 289 286 285 288 293 298 301 304 309 312 310 308 307 305 304 302 298 291 286 284 282 279 276 274 271 270 269 269 267 268 268 268 268 268 266 265 264 262 260 260 260
263 264 266 267 265 261 258 257 255 253 251 254 264 265 232 186 167 160 165 168 161 152 147 147 147 144 141 140 139 142 151 159 156 142 128 133 185 312 314 317 339 344 337 320 307 305 302 302 306 308 306 306 310 309 305 304 305 304 303 300 293 284 281 282 281 277 275 274 272 271 271 271 269 269 268 267 266 264 263 262 262 260 259 259 259
264 262 263 264 263 261 259 258 258 258 255 252 251 238 214 199 183 169 171 170 157 147 144 142 141 138 132 127 130 138 151 155 146 135 134 132 299 298 299 311 331 335 332 323 320 319 313 310 311 310 307 308 312 310 307 305 305 304 303 299 292 287 285 285 283 281 279 278 276 274 274 274 271 267 266 264 263 261 260 259 259 259 258 257 257
264 262 261 259 258 259 260 258 258 259 252 234 221 221 214 201 183 176 176 167 151 146 146 142 140 143 141 141 147 150 144 133 120 113 121 117 339 316 321 332 338 339 323 310 312 315 310 307 311 316 316 314 312 311 309 306 306 306 304 301 298 294 292 289 286 283 281 279 278 277 278 278 274 271 269 267 264 263 261 259 258 257 256 256 256
263 260 257 256 257 257 256 256 258 254 234 199 189 199 200 188 172 163 163 156 146 143 147 144 143 146 144 143 147 135 120 118 124 135 144 150 315 333 334 332 336 335 321 319 326 325 313 312 320 323 322 317 313 311 311 309 308 307 304 302 300 297 294 292 288 285 282 280 279 279 279 278 276 275 275 272 268 265 261 259 259 257 256 255 253
260 257 253 252 252 249 247 247 245 229 193 162 148 149 161 169 158 144 144 146 140 138 145 145 143 139 132 127 127 127 123 128 143 150 139 114 16 347 338 342 353 354 349 354 358 338 319 324 330 327 322 319 315 312 312 311 309 307 305 304 301 297 294 291 288 285 284 282 279 278 278 277 275 273 272 271 269 265 261 259 259 257 255 253 251
254 252 249 247 245 242 241 235 208 179 162 148 137 129 127 130 133 134 139 140 133 132 140 142 140 142 139 129 124 129 133 137 143 140 120 65 19 14 29 33 29 22 14 8 355 337 334 335 331 324 320 316 313 311 312 311 310 308 306 304 301 297 294 290 286 285 285 284 282 280 278 276 275 272 269 267 266 264 262 260 258 255 253 251 250
247 246 245 245 241 236 229 209 179 163 155 146 138 130 123 118 116 122 131 136 134 135 140 141 140 146 150 145 140 139 140 139 136 124 90 58 52 69 63 47 35 28 19 1 336 334 339 333 323 320 318 314 311 312 312 310 308 306 304 301 298 295 293 291 289 289 288 285 282 280 277 274 272 270 268 265 263 263 261 257 254 252 251 249 249
242 239 239 241 237 224 202 177 164 159 153 145 139 136 132 126 119 118 122 128 131 133 137 139 140 140 140 140 140 139 136 132 125 109 81 67 74 77 63 45 35 28 17 359 338 336 335 327 322 320 317 313 313 312 310 307 305 303 302 299 296 294 293 292 290 289 287 283 280 278 275 272 270 269 266 263 261 260 259 255 252 250 248 246 245
235 231 230 229 218 193 170 160 158 156 150 144 141 138 137 135 129 122 119 118 117 117 120 127 134 135 133 133 133 133 132 128 115 89 67 62 69 70 49 27 21 18 2 342 337 339 335 328 324 320 315 313 312 309 308 307 306 305 302 299 296 294 293 292 290 288 285 282 279 276 273 271 269 267 266 263 260 260 259 256 251 246 243 242 242
230 225 220 211 191 169 157 151 151 148 140 135 134 133 131 130 128 125 123 120 117 115 118 125 134 139 139 138 138 135 130 120 98 76 67 64 63 58 37 16 7 359 343 336 340 341 337 330 326 320 316 313 311 309 310 311 309 307 305 302 299 297 296 294 291 289 287 285 282 278 275 273 270 267 266 264 262 261 260 256 251 245 240 238 239
222 216 207 191 169 155 149 145 144 141 135 132 134 136 135 133 132 133 135 135 132 130 130 133 138 141 140 139 138 133 124 105 84 76 72 65 54 36 18 9 2 355 351 348 344 340 334 329 325 320 317 315 312 312 314 315 312 309 306 304 302 300 299 296 292 290 290 289 287 283 278 274 270 267 265 263 260 258 257 255 252 248 243 239 237
189 180 170 158 148 144 144 143 142 138 135 134 138 144 146 145 144 147 150 149 147 144 141 141 143 142 143 146 143 134 122 103 85 72 66 57 36 10 359 0 358 352 350 348 343 337 332 329 326 323 320 318 316 316 317 316 313 310 307 306 304 301 298 297 296 295 293 291 289 286 282 278 274 271 267 264 262 260 258 256 252 248 245 241 238
151 145 143 143 142 141 139 138 137 138 138 138 143 149 153 153 154 155 154 155 155 150 148 155 161 158 157 160 157 144 133 125 117 108 339 347 352 355 0 3 360 352 349 345 340 336 332 329 328 326 323 321 320 320 319 318 315 312 311 310 306 303 301 300 299 298 296 293 291 289 286 283 280 276 270 266 263 261 259 257 254 248 243 238 233
137 137 138 138 137 135 134 134 136 138 139 140 142 147 150 156 161 161 156 158 160 156 157 167 169 157 152 159 166 172 179 186 200 226 13 13 5 3 3 1 357 352 345 340 337 335 333 331 329 327 325 324 323 323 323 322 319 316 315 313 310 307 305 303 302 300 299 298 297 294 290 286 284 280 275 269 265 261 258 255 251 245 239 233 229
125 129 131 132 130 130 130 132 132 132 135 141 148 156 162 166 167 160 155 157 160 159 159 154 135 125 140 158 173 189 198 201 192 81 51 25 8 5 2 357 354 349 342 337 336 335 333 332 331 327 326 326 326 326 327 327 323 319 316 314 312 310 307 305 304 304 303 302 301 298 294 290 287 283 278 272 268 265 260 254 249 243 237 234 234
113 118 123 124 123 123 124 127 132 137 143 150 156 162 166 164 156 148 151 159 160 155 145 126 110 121 153 169 175 185 206 43 86 107 66 11 5 7 2 354 349 345 341 338 335 334 334 333 330 329 329 328 327 328 329 329 326 323 319 316 314 313 311 308 308 308 308 307 305 301 297 295 292 288 284 280 276 272 264 255 248 242 234 232 233
106 113 117 120 123 128 134 140 145 148 151 154 155 155 155 152 147 147 153 157 152 143 130 112 110 136 162 170 169 166 131 40 70 99 46 13 11 8 1 354 348 345 343 339 336 335 335 333 331 331 331 329 328 330 331 330 329 328 325 320 317 317 316 314 313 313 313 312 309 306 304 301 296 292 290 288 283 274 260 247 239 235 230 228 228
107 114 122 130 136 139 137 134 132 128 124 127 136 143 144 140 136 136 138 137 134 133 127 114 115 133 146 152 157 158 138 35 54 64 25 355 349 357 356 351 347 345 344 341 338 337 335 332 331 331 329 330 333 335 334 333 333 332 329 326 323 322 320 319 318 319 318 317 315 314 311 308 303 301 302 299 288 267 248 239 233 230 231 229 222
104 109 122 129 124 111 102 100 102 100 96 96 103 112 116 116 114 113 116 114 110 110 113 110 112 119 119 123 159 174 171 46 59 31 355 344 339 344 347 347 345 345 344 342 340 338 334 332 332 329 327 330 335 337 336 335 334 334 334 333 331 328 327 325 325 325 325 325 323 321 317 315 316 318 319 314 297 266 247 241 232 223 223 218 204
100 96 103 106 98 92 93 94 94 96 97 96 94 92 94 98 99 98 100 101 98 96 96 94 97 109 118 129 169 208 222 81 200 264 324 349 344 341 343 343 339 339 341 342 341 338 336 335 334 331 330 333 338 342 344 342 338 337 340 339 337 336 336 335 335 337 337 335 332 327 321 321 327 331 329 323 312 286 258 241 220 204 200 193 186
96 83 84 87 85 85 88 89 89 91 93 95 94 91 89 89 88 87 87 88 89 91 95 98 103 110 112 105 87 8 329 223 235 269 313 332 334 336 339 336 331 332 339 342 341 341 340 338 336 337 339 343 348 351 353 350 345 344 347 347 347 348 349 348 348 349 348 345 342 337 330 329 336 340 337 332 328 310 276 247 218 202 194 183 174
86 77 78 83 83 82 82 84 85 86 85 84 84 85 85 85 86 87 87 86 84 82 84 95 104 98 82 74 74 260 257 263 276 299 320 327 328 330 333 332 328 329 336 342 344 345 343 340 339 341 346 351 355 357 357 354 352 352 354 355 355 357 358 357 357 356 355 355 353 347 341 343 353 359 356 350 348 343 319 275 220 185 169 157 148
75 74 76 80 83 85 86 86 87 86 84 83 83 83 83 84 85 85 85 84 84 82 81 81 82 76 71 67 303 269 274 288 298 324 353 347 337 332 333 335 330 327 333 342 347 347 345 345 346 346 346 349 355 358 357 355 355 356 357 358 359 359 1 3 3 2 1 4 4 359 354 359 7 14 20 24 23 26 43 57 87 123 131 133 136
73 73 73 74 76 80 83 86 88 89 88 87 87 85 84 84 83 83 83 82 79 75 73 71 68 68 69 53 308 303 310 315 322 7 20 352 333 331 336 337 331 327 331 338 345 346 344 346 349 349 346 348 355 360 359 356 356 357 359 0 1 2 3 6 8 7 7 12 16 14 11 14 18 22 30 41 45 46 52 64 83 104 113 119 128
73 74 75 75 75 76 78 80 83 84 86 88 89 88 87 87 85 83 84 86 84 75 64 59 58 57 50 27 346 327 323 326 339 1 0 338 334 339 343 338 330 328 330 334 342 347 346 344 348 348 347 349 354 358 359 358 357 359 0 1 3 6 7 8 11 13 13 17 24 25 23 27 32 33 36 46 54 54 57 69 87 100 107 112 119
72 74 76 76 75 76 76 77 79 81 82 85 86 87 87 87 86 83 81 81 81 76 68 60 54 44 34 26 11 349 338 340 337 346 357 351 345 346 346 338 331 329 328 330 339 345 345 345 347 348 347 347 349 351 355 358 0 3 4 3 4 8 11 11 11 13 15 20 29 33 33 35 39 40 42 49 57 62 66 74 83 92 99 104 111